Location: Dackenheim
(49.5215°N, 8.1854°E)
Time: 04:06:02
(UTC+00:00)

JY1SAT - Pass Details

Date: 18 March 2026
Orbit: 466 x 476 km, 97.4° (Epoch: 17 April)

Event Time Altitude Azimuth Distance (km) Brightness Sun altitude
Exits shadow 20:28:18 25° 349° (N) 1,015 ? -27.0°
Drops below altitude 10° 20:29:54 10° 348° (NNW) 1,668 ? -27.2°
Sets 20:31:58 0° 348° (NNW) 2,552 ? -27.5°
